Location: Proctor
(47.8934°N, 114.3048°W)
Time: 22:09:28
(UTC+00:00)

Tiros 1 despin weight - Pass Details

Date: 25 June 2024
Orbit: 576 x 620 km, 48.2° (Epoch: 19 July)

Event Time Altitude Azimuth Distance (km) Brightness Sun altitude
Rises 23:11:53 0° 284° (WNW) 2,898 ? 41.7°
Reaches altitude 10° 23:14:14 10° 280° (W) 1,989 ? 41.3°
Maximum altitude 23:18:43 56° 203° (SSW) 740 ? 40.6°
Drops below altitude 10° 23:23:09 10° 126° (SE) 1,968 ? 39.8°
Sets 23:25:28 0° 122° (ESE) 2,865 ? 39.4°
